This demonstration page uses our WeatherBlox Daily Observations layout. Learn more.

Left ArrowRight Arrow

38.83388, -104.82136

Hourly Observations for November 5, 2019

Temp ( °F °C ) Dew Point ( °F °C ) Humidity (%) Winds ( mph kmh ) Pressure ( in mb ) Visibility ( mi km ) Precip ( " mm )
12:58 am 00:58 Clear 29 -1.4 26 -3.1 88 88 N 5 7 29.89 1012 10 16 0.00 0.00
1:58 am 01:58 Clear 31 -0.8 26 -3.2 84 84 Calm 29.87 1012 10 16 0.00 0.00
2:58 am 02:58 Clear 30 -1.2 26 -3.3 86 86 N 5 7 29.88 1012 10 16 0.00 0.00
3:58 am 03:58 Clear 33 0.6 26 -3.3 75 75 Calm 29.86 1011 10 16 0.00 0.00
4:58 am 04:58 Clear 33 0.5 25 -3.7 74 74 SSE 3 6 29.85 1011 10 16 0.00 0.00
5:58 am 05:58 Clear 37 2.9 21 -6.1 52 52 Calm 29.85 1011 10 16 0.00 0.00
6:59 am 06:59 Sunny 35 1.4 24 -4.5 65 65 NW 5 7 29.89 1012 10 16 0.00 0.00
7:58 am 07:58 Sunny 48 9 18 -7.6 30 30 N 6 9 29.83 1010 10 16 0.00 0.00
8:58 am 08:58 Sunny 51 10.7 19 -7 28 28 ESE 5 7 29.82 1010 10 16 0.00 0.00
9:58 am 09:58 Sunny 52 11.1 26 -3.3 37 37 E 5 7 29.83 1010 10 16 0.00 0.00
10:58 am 10:58 Sunny 54 12.3 19 -7 26 26 SE 8 13 29.83 1010 10 16 0.00 0.00
11:58 am 11:58 Sunny 55 12.5 18 -7.7 24 24 SSE 9 15 29.83 1010 10 16 0.00 0.00
12:58 pm 12:58 Sunny 53 11.9 24 -4.2 32 32 SE 10 17 29.82 1010 10 16 0.00 0.00
1:58 pm 13:58 Sunny 54 12 25 -4.1 32 32 SE 8 13 29.80 1009 10 16 0.00 0.00
2:58 pm 14:58 Sunny 50 10.1 28 -2.3 42 42 SE 7 11 29.85 1011 10 16 0.00 0.00
3:58 pm 15:58 Sunny 49 9.3 28 -2.3 44 44 S 8 13 29.83 1010 10 16 0.00 0.00
4:58 pm 16:58 Clear 47 8.6 28 -2.5 46 46 SSW 9 15 29.84 1011 10 16 0.00 0.00
6:58 pm 18:58 Clear 46 7.9 28 -2.3 49 49 S 8 13 29.86 1011 10 16 0.00 0.00
7:58 pm 19:58 Clear 42 5.6 28 -2.3 57 57 Calm 29.81 1009 10 16 0.00 0.00
8:58 pm 20:58 Clear 42 5.7 26 -3.1 54 54 WNW 6 9 29.81 1009 10 16 0.00 0.00
9:58 pm 21:58 Clear 42 5.3 27 -3 55 55 WNW 6 9 29.81 1009 10 16 0.00 0.00
10:56 pm 22:56 Clear 40 4.4 25 -3.8 56 56 WNW 5 7 29.80 1009 10 16 0.00 0.00
11:58 pm 23:58 Clear 41 5.1 25 -3.8 53 53 Calm 29.77 1008 10 16 0.00 0.00

Powered by AerisWeather